Location: Les Moreaux
(47.2278°N, 1.4966°E)
Time: 01:29:14
(UTC+00:00)

ISS - Pass Details

Date: 19 May 2025
Orbit: 415 x 416 km, 51.6° (Epoch: 18 June)

Event Time Altitude Azimuth Distance (km) Brightness Sun altitude
Rises 20:13:49 0° 286° (WNW) 2,361 1.5 -7.1°
Reaches altitude 10° 20:16:01 10° 295° (WNW) 1,496 0.5 -7.3°
Maximum altitude 20:19:11 38° 5° (N) 655 -2.4 -7.8°
Drops below altitude 10° 20:22:21 10° 76° (ENE) 1,493 -1.3 -8.2°
Enters shadow 20:23:56 - 83° (E) 2,113 -0.6 -8.4°
